Weather Roundup
Issued by NWS Chicago, IL

Home | Current Version | Previous Version | Text Only | Print | Product List | Glossary On
Versions: 1 2 3 4 5 6 7 8 9 10 11 12 13 14 15 16 17 18 19 20 21 22 23 24 25 26 27 28 29 30 31 32 33 34 35 36 37 38 39 40 41 42 43 44 45 46 47 48 49 50
000
NZUS59 KLOT 281010
HRRLOT

CHICAGO AREA WEATHER ROUNDUP
NATIONAL WEATHER SERVICE CHICAGO/ROMEOVILLE IL
400 AM CST SUN DEC 28 2014

NOTE: "FAIR" INDICATES FEW OR NO CLOUDS BELOW 12,000 FEET WITH NO
SIGNIFICANT WEATHER AND/OR OBSTRUCTIONS TO VISIBILITY.

* THESE STATIONS ARE NOT UNDER NWS QUALITY CONTROL. THEY ALSO MAY NOT
  REPORT WEATHER SUCH AS PRECIPITATION OR FOG.

ILZ005-006-012>014-019>023-281100-
NORTHEAST ILLINOIS

CITY           SKY/WX    TMP DP  RH WIND       PRES   REMARKS
OHARE          CLEAR     25  19  78 W10       30.12R WCI  15
MIDWAY         CLOUDY    30  22  72 W9        30.12S WCI  22
AURORA         CLOUDY    26  19  74 NW14      30.14S WCI  14
LANSING*       CLOUDY    30  24  80 W8        30.13S WCI  22
JOLIET*        CLOUDY    27  20  77 NW6       30.15S WCI  20
WAUKEGAN       CLEAR     26  19  74 W6        30.10R WCI  19
DUPAGE AIRPORT CLOUDY    26  20  77 NW8       30.12R WCI  18
WHEELING       MOCLDY    25  19  78 W6        30.14R WCI  18
KANKAKEE*      CLOUDY    28  24  82 W10       30.16R WCI  19
MORRIS*        CLOUDY    26  22  86 W10       30.16R WCI  16
LEWIS AIRPORT* CLOUDY    27  22  82 W9        30.14S WCI  17
NORTHERLY IS     N/A     29  22  75 W3          N/A
$$

WIZ051-052-058>065-066-070>072-281100-
SOUTHEAST WISCONSIN

CITY           SKY/WX    TMP DP  RH WIND       PRES   REMARKS
MILWAUKEE      PTCLDY    26  18  71 W10       30.09S WCI  16
KENOSHA*       CLEAR     25  20  81 W6        30.10R WCI  18
RACINE*        CLEAR     26  19  74 W9        30.11R WCI  17
BURLINGTON     CLEAR     22  19  87 W7        30.10F WCI  13
WAUKESHA       CLEAR     21  19  93 W6        30.10S WCI  14
WEST BEND      CLEAR     23  18  80 W8        30.08S WCI  14
$$

INZ001>003-010>013-019-020-281100-
NORTHWEST INDIANA

CITY           SKY/WX    TMP DP  RH WIND       PRES   REMARKS
GARY*          NOT AVBL
MICHIGAN CITY* NOT AVBL
RENSSELAER*    NOT AVBL
VALPARAISO     CLOUDY    30  24  78 W8        30.12R WCI  22
$$

LMZ740>746-281100-
SOUTHERN LAKE MICHIGAN

STATION/POSITION TIME  SKY/WX   TEMP WIND        PRES    VSBY
                                AIR  DIR/SP/G
                 (UTC)          (F)  (DEG/KT/KT) (MB)    (MI)
HARRISON CRIB    1000            29  300/ 13/ 16   N/A
BURNHAM HARBOR   1000            29  310/  6/ 12   N/A
CALUMET HARBOR   1000            31  240/  4/  8 1018.6F
BURNS HARBOR     NOT AVBL
MICHIGAN CITY    1000            32  270/ 12/ 16   N/A
$$

ABBREVIATIONS USED IN REMARKS
   TC - TEMPERATURE IN CELSIUS
  WCI - WIND CHILL INDEX
   HX - HEAT INDEX
  VSB - VISIBILITY
$$


USA.gov is the U.S. government's official web portal to all federal, state and local government web resources and services.